• In Uzbekistan
  • List of Countries
  • For 7 days
  • Water Temperature
  • Satellite Maps
  • Weather Map
  • Weather Widgets
  • user-avatar
    Login

    Hourly Weather Holguin

    Today, 18 October, Wednesday

    Time Temperature Precipitation Wind Pressure Humidity
    00:00 +26°C° 0 mm 2 mps 747 mmHg 88%
    01:00 +26°C° 0 mm 2 mps 747 mmHg 89%
    02:00 +26°C° 0.1 mm 2 mps 747 mmHg 89%
    03:00 +26°C° 0.1 mm 2 mps 747 mmHg 90%
    04:00 +25°C° 0.1 mm 2 mps 746 mmHg 90%
    05:00 +26°C° 0 mm 2 mps 747 mmHg 89%
    06:00 +26°C° 0 mm 2 mps 747 mmHg 88%
    07:00 +27°C° 0 mm 2 mps 747 mmHg 86%
    08:00 +29°C° 0 mm 3 mps 747 mmHg 78%
    09:00 +31°C° 0 mm 3 mps 748 mmHg 70%
    10:00 +34°C° 0 mm 4 mps 748 mmHg 62%
    11:00 +34°C° 0 mm 4 mps 748 mmHg 59%
    12:00 +35°C° 0 mm 4 mps 747 mmHg 57%
    13:00 +36°C° 0 mm 4 mps 747 mmHg 55%
    14:00 +35°C° 0.2 mm 4 mps 747 mmHg 60%
    15:00 +34°C° 0.2 mm 4 mps 746 mmHg 66%
    16:00 +33°C° 0.2 mm 5 mps 746 mmHg 71%
    17:00 +30°C° 0.4 mm 4 mps 746 mmHg 77%
    18:00 +29°C° 0.4 mm 4 mps 747 mmHg 83%
    19:00 +27°C° 0.4 mm 3 mps 747 mmHg 89%
    20:00 +27°C° 0.2 mm 3 mps 747 mmHg 90%
    21:00 +27°C° 0.2 mm 3 mps 748 mmHg 91%
    22:00 +27°C° 0.2 mm 3 mps 748 mmHg 92%
    23:00 +27°C° 0 mm 3 mps 748 mmHg 93%

    Tomorrow, 19 October, Thursday

    Time Temperature Precipitation Wind Pressure Humidity
    00:00 +26°C° 0 mm 2 mps 747 mmHg 93%
    01:00 +26°C° 0 mm 2 mps 747 mmHg 93%
    02:00 +26°C° 0 mm 2 mps 747 mmHg 93%
    03:00 +26°C° 0 mm 2 mps 746 mmHg 94%
    04:00 +26°C° 0 mm 2 mps 746 mmHg 94%
    05:00 +26°C° 0 mm 2 mps 746 mmHg 92%
    06:00 +27°C° 0 mm 2 mps 747 mmHg 91%
    07:00 +27°C° 0 mm 1 mps 747 mmHg 89%
    08:00 +29°C° 0 mm 2 mps 747 mmHg 81%
    09:00 +30°C° 0 mm 2 mps 748 mmHg 73%
    10:00 +32°C° 0 mm 2 mps 748 mmHg 65%
    11:00 +34°C° 0 mm 2 mps 748 mmHg 62%
    12:00 +35°C° 0 mm 2 mps 747 mmHg 59%
    13:00 +35°C° 0 mm 2 mps 746 mmHg 56%
    14:00 +35°C° 0.3 mm 3 mps 746 mmHg 61%
    15:00 +34°C° 0.3 mm 3 mps 746 mmHg 66%
    16:00 +33°C° 0.3 mm 4 mps 745 mmHg 72%
    17:00 +30°C° 0.6 mm 3 mps 746 mmHg 77%
    18:00 +29°C° 0.6 mm 3 mps 746 mmHg 83%
    19:00 +28°C° 0.6 mm 2 mps 746 mmHg 89%
    20:00 +27°C° 0.2 mm 2 mps 747 mmHg 90%
    21:00 +27°C° 0.2 mm 2 mps 747 mmHg 90%
    22:00 +27°C° 0.2 mm 1 mps 747 mmHg 91%
    23:00 +27°C° 0.5 mm 1 mps 747 mmHg 91%

    Day after tomorrow, 20 October, Friday

    Time Temperature Precipitation Wind Pressure Humidity
    00:00 +27°C° 0.5 mm 1 mps 747 mmHg 91%
    01:00 +26°C° 0.5 mm 1 mps 747 mmHg 91%
    02:00 +26°C° 0.6 mm 1 mps 747 mmHg 91%
    03:00 +26°C° 0.6 mm 1 mps 746 mmHg 91%
    04:00 +26°C° 0.6 mm 1 mps 746 mmHg 91%
    05:00 +26°C° 0.1 mm 1 mps 746 mmHg 89%
    06:00 +26°C° 0.1 mm 1 mps 747 mmHg 88%
    07:00 +27°C° 0.1 mm 1 mps 747 mmHg 86%
    08:00 +29°C° 0 mm 1 mps 747 mmHg 78%
    09:00 +30°C° 0 mm 1 mps 748 mmHg 70%
    10:00 +32°C° 0 mm 1 mps 748 mmHg 61%
    11:00 +33°C° 0 mm 1 mps 748 mmHg 57%
    12:00 +34°C° 0 mm 1 mps 747 mmHg 53%
    13:00 +35°C° 0 mm 1 mps 747 mmHg 48%
    14:00 +35°C° 0 mm 2 mps 746 mmHg 52%
    15:00 +35°C° 0 mm 3 mps 746 mmHg 55%
    16:00 +34°C° 0 mm 3 mps 746 mmHg 58%
    17:00 +31°C° 0.5 mm 3 mps 746 mmHg 66%
    18:00 +30°C° 0.5 mm 3 mps 746 mmHg 73%
    19:00 +28°C° 0.5 mm 3 mps 746 mmHg 80%
    20:00 +27°C° 0.1 mm 3 mps 747 mmHg 81%
    21:00 +27°C° 0.1 mm 2 mps 747 mmHg 82%
    22:00 +27°C° 0.1 mm 2 mps 747 mmHg 83%
    23:00 +27°C° 0.1 mm 2 mps 747 mmHg 84%

    21 October, Saturday

    Time Temperature Precipitation Wind Pressure Humidity
    00:00 +27°C° 0.1 mm 2 mps 747 mmHg 84%
    01:00 +26°C° 0.1 mm 2 mps 747 mmHg 85%
    02:00 +26°C° 0.1 mm 2 mps 747 mmHg 85%
    03:00 +26°C° 0.1 mm 2 mps 746 mmHg 85%
    04:00 +26°C° 0.1 mm 2 mps 746 mmHg 86%
    05:00 +26°C° 0.1 mm 2 mps 747 mmHg 85%
    06:00 +26°C° 0.1 mm 2 mps 747 mmHg 84%
    07:00 +27°C° 0.1 mm 2 mps 747 mmHg 82%
    08:00 +28°C° 0 mm 2 mps 748 mmHg 74%
    09:00 +30°C° 0 mm 3 mps 748 mmHg 65%
    10:00 +33°C° 0 mm 3 mps 749 mmHg 56%
    11:00 +34°C° 0.1 mm 3 mps 748 mmHg 54%
    12:00 +35°C° 0.1 mm 3 mps 748 mmHg 52%
    13:00 +35°C° 0.1 mm 4 mps 747 mmHg 49%
    14:00 +35°C° 0 mm 4 mps 747 mmHg 53%
    15:00 +34°C° 0 mm 5 mps 747 mmHg 57%
    16:00 +33°C° 0 mm 5 mps 747 mmHg 60%
    17:00 +30°C° 0 mm 5 mps 747 mmHg 64%
    18:00 +29°C° 0 mm 5 mps 748 mmHg 67%
    19:00 +27°C° 0 mm 5 mps 748 mmHg 70%
    20:00 +27°C° 0 mm 5 mps 748 mmHg 73%
    21:00 +27°C° 0 mm 5 mps 749 mmHg 75%
    22:00 +26°C° 0 mm 5 mps 749 mmHg 78%
    23:00 +26°C° 0 mm 5 mps 749 mmHg 80%

    22 October, Sunday

    Time Temperature Precipitation Wind Pressure Humidity
    00:00 +26°C° 0 mm 4 mps 748 mmHg 82%
    01:00 +25°C° 0 mm 4 mps 748 mmHg 84%
    02:00 +25°C° 0 mm 4 mps 748 mmHg 85%
    03:00 +25°C° 0 mm 4 mps 748 mmHg 85%
    04:00 +25°C° 0 mm 4 mps 747 mmHg 86%
    05:00 +25°C° 0 mm 4 mps 748 mmHg 85%
    06:00 +26°C° 0 mm 4 mps 748 mmHg 84%
    07:00 +26°C° 0 mm 4 mps 749 mmHg 84%
    08:00 +28°C° 0 mm 5 mps 749 mmHg 76%
    09:00 +30°C° 0 mm 6 mps 749 mmHg 69%
    10:00 +32°C° 0 mm 6 mps 749 mmHg 61%
    11:00 +33°C° 0 mm 6 mps 749 mmHg 58%
    12:00 +34°C° 0 mm 6 mps 748 mmHg 56%
    13:00 +34°C° 0 mm 7 mps 748 mmHg 53%
    14:00 +34°C° 0 mm 7 mps 748 mmHg 56%
    15:00 +33°C° 0 mm 7 mps 748 mmHg 59%
    16:00 +32°C° 0 mm 7 mps 748 mmHg 61%
    17:00 +30°C° 0 mm 6 mps 748 mmHg 65%
    18:00 +29°C° 0 mm 6 mps 748 mmHg 68%
    19:00 +27°C° 0 mm 6 mps 749 mmHg 72%
    20:00 +27°C° 0 mm 5 mps 749 mmHg 75%
    21:00 +26°C° 0 mm 5 mps 749 mmHg 78%
    22:00 +26°C° 0 mm 4 mps 749 mmHg 82%
    23:00 +26°C° 0 mm 4 mps 749 mmHg 83%

    23 October, Monday

    Time Temperature Precipitation Wind Pressure Humidity
    00:00 +25°C° 0 mm 4 mps 748 mmHg 84%
    01:00 +25°C° 0 mm 4 mps 748 mmHg 86%
    02:00 +25°C° 0 mm 4 mps 748 mmHg 87%
    03:00 +25°C° 0 mm 4 mps 748 mmHg 88%
    04:00 +24°C° 0 mm 3 mps 748 mmHg 89%
    05:00 +25°C° 0 mm 3 mps 748 mmHg 87%
    06:00 +25°C° 0 mm 4 mps 748 mmHg 86%
    07:00 +26°C° 0 mm 4 mps 749 mmHg 85%
    08:00 +28°C° 0 mm 4 mps 749 mmHg 77%
    09:00 +30°C° 0 mm 5 mps 749 mmHg 69%
    10:00 +33°C° 0 mm 6 mps 749 mmHg 61%
    11:00 +33°C° 0.1 mm 6 mps 748 mmHg 58%
    12:00 +34°C° 0.1 mm 6 mps 748 mmHg 55%
    13:00 +34°C° 0.1 mm 6 mps 747 mmHg 52%
    14:00 +34°C° 0 mm 6 mps 747 mmHg 56%
    15:00 +33°C° 0 mm 6 mps 747 mmHg 59%
    16:00 +32°C° 0 mm 6 mps 746 mmHg 63%
    17:00 +30°C° 0 mm 6 mps 746 mmHg 68%
    18:00 +29°C° 0 mm 6 mps 747 mmHg 73%
    19:00 +27°C° 0 mm 5 mps 747 mmHg 78%
    20:00 +27°C° 0 mm 5 mps 747 mmHg 80%
    21:00 +27°C° 0 mm 4 mps 747 mmHg 82%
    22:00 +26°C° 0 mm 4 mps 748 mmHg 84%
    23:00 +26°C° 0 mm 4 mps 747 mmHg 85%
    Show more